Regional Weather Roundup
Issued by NWS

Home | Current Version | Previous Version | Text Only | Print | Product List | Glossary Off
Versions: 1 2 3 4 5 6 7 8 9 10 11 12 13 14 15 16 17 18 19 20 21 22 23 24 25 26 27 28 29 30 31 32 33 34 35 36 37 38 39 40 41 42 43 44 45 46 47 48 49 50

000
ASUS43 KLOT 281500
RWRIL

ILLINOIS REGIONAL WEATHER ROUNDUP
NATIONAL WEATHER SERVICE CHICAGO/ROMEOVILLE IL
900 AM CST SUN DEC 28 2014

NOTE: "FAIR" INDICATES FEW OR NO CLOUDS BELOW 12,000 FEET WITH NO
SIGNIFICANT WEATHER AND/OR OBSTRUCTIONS TO VISIBILITY.

* THESE STATIONS ARE NOT UNDER NWS QUALITY CONTROL. THEY ALSO MAY NOT
  REPORT WEATHER SUCH AS PRECIPITATION OR FOG.

ILZ001-002-007-009-015-016-024-281600-
NORTHWEST ILLINOIS

CITY           SKY/WX    TMP DP  RH WIND       PRES   REMARKS
MOLINE         SUNNY     20  16  84 SW5       30.22R WCI  13
STERLING*      MOSUNNY   19  16  86 W7        30.20R WCI  10
$$

ILZ003-004-008-010-011-017-018-281600-
NORTH CENTRAL ILLINOIS

CITY           SKY/WX    TMP DP  RH WIND       PRES   REMARKS
ROCKFORD       MOSUNNY   21  15  78 W6        30.20R WCI  13
DE KALB*       PTSUNNY   19  16  85 W8        30.18R WCI   9
$$

ILZ005-006-012>014-019>023-281600-
NORTHEAST ILLINOIS

CITY           SKY/WX    TMP DP  RH WIND       PRES   REMARKS
CHICAGO-OHARE  PTSUNNY   23  17  78 W6        30.17R WCI  16
CHICAGO-MIDWAY CLOUDY    26  20  77 W8        30.19R WCI  18
AURORA         PTSUNNY   23  18  81 W8        30.19R WCI  14
WAUKEGAN       MOSUNNY   23  17  78 SW5       30.16R WCI  17
DUPAGE AIRPORT PTSUNNY   23  17  78 W7        30.18R WCI  15
WHEELING       PTSUNNY   23  16  74 W5        30.19R WCI  17
NORTHERLY ISL    N/A     26  20  77 W2          N/A
$$

LMZ740>746-281600-
SOUTHERN LAKE MICHIGAN

STATION/POSITION SKY/WX   TEMP    WIND        PRES    VSBY  WAVE
                          AIR SEA DIR/SP/G                  HT/PER
                          (F)     (DEG/KT/KT) (MB)    (MI)  (FT/S)
WAUKEGAN HARBOR            23     250/  6/ 10   N/A
HARRISON CRIB              25     260/ 11/ 13   N/A
BURNHAM HARBOR             26     240/  5/ 11   N/A
CALUMET HARBOR             26     240/  5/  8 1020.7R
MICHIGAN CITY              30     260/ 11/ 13   N/A
$$

ILZ025>027-034>036-040-047-049-050-058-095>099-281600-
WEST-CENTRAL ILLINOIS

CITY           SKY/WX    TMP DP  RH WIND       PRES   REMARKS
QUINCY         PTSUNNY   27  22  81 W6        30.24R WCI  20
$$

ILZ028>032-037-038-041>044-048-051>054-059>061-281600-
CENTRAL ILLINOIS

CITY           SKY/WX    TMP DP  RH WIND       PRES   REMARKS
DECATUR        CLOUDY    28  22  78 NW8       30.23R WCI  20
PEORIA         PTSUNNY   24  18  77 CALM      30.23S
SPRINGFIELD    CLOUDY    30  22  72 W5        30.25R WCI  25
TAYLORVILLE    NOT AVBL
$$

ILZ033-039-045-046-055>057-062-063-281600-
EAST-CENTRAL ILLINOIS

CITY           SKY/WX    TMP DP  RH WIND       PRES   REMARKS
CHAMPAIGN      CLOUDY    27  20  75 NW10      30.22R WCI  17
MATTOON        CLOUDY    28  23  81 N10       30.22R WCI  19
$$

ILZ079-100>102-281600-
SOUTHWEST ILLINOIS

CITY           SKY/WX    TMP DP  RH WIND       PRES   REMARKS
ALTON          CLOUDY    32  25  74 NW7       30.26R WCI  26
BELLEVILLE     CLOUDY    32  27  83 NW7       30.24S WCI  25
CAHOKIA*       CLOUDY    32  25  75 NW8       30.25S WCI  25
$$

ILZ064>066-069>071-074>076-080>082-084>086-088>090-092>094-281600-
SOUTH-CENTRAL ILLINOIS

CITY           SKY/WX    TMP DP  RH WIND       PRES   REMARKS
CARBONDALE     CLOUDY    33  26  75 NW10      30.24S WCI  25
MARION         CLOUDY    34  28  80 NW9       30.24S WCI  26
MT. VERNON     CLOUDY    30  23  74 CALM      30.24S
$$

ILZ067-068-072-073-078-083-087-091-281600-
SOUTHEAST ILLINOIS

CITY           SKY/WX    TMP DP  RH WIND       PRES   REMARKS
LAWRENCEVILLE  CLOUDY    33  28  81 N8        30.23R WCI  26
$$

ABBREVIATIONS USED IN REMARKS
   TC - TEMPERATURE IN CELSIUS
  WCI - WIND CHILL INDEX
   HX - HEAT INDEX
  VSB - VISIBILITY
$$



USA.gov is the U.S. government's official web portal to all federal, state and local government web resources and services.